Prague, Czech Republic

1:22 PM CEST on August 30, 2016 (GMT +0200)
Ruzyne

Weather History for LKPR - April, 2014

Change the Weather History Date:

Thursday, April 17, 2014

  Actual Average Record
Temperature  
Mean Temperature 39 °F -  
Max Temperature 53 °F 61 °F 75 °F (2007)
Min Temperature 25 °F 41 °F 25 °F (2014)
Degree Days  
Heating Degree Days 26    
Moisture  
Dew Point 24 °F    
Average Humidity 50    
Maximum Humidity 86    
Minimum Humidity 17    
Precipitation  
Precipitation 0.00 in 0.08 in - ()
Sea Level Pressure  
Sea Level Pressure 30.23 in    
Wind  
Wind Speed 4 mph ()    
Max Wind Speed 7 mph    
Max Gust Speed -    
Visibility 6.2 miles    
Events      
Averages and records for this station are not official NWS values.
T = Trace of Precipitation, MM = Missing Value Source: Averaged Metar Reports

Daily Weather History Graph

Daily Weather History Graph

Search for Another Location

Airport or City:

Trip Planner

Search our weather history database for the weather conditions in past years. The results will help you decide how hot, cold, wet, or windy it might be!

Date:

Astronomy

Apr. 17, 2014 Rise Set
Actual Time 6:06 AM CEST 7:59 PM CEST
Civil Twilight 5:31 AM CEST 8:34 PM CEST
Nautical Twilight 4:49 AM CEST 9:17 PM CEST
Astronomical Twilight 4:01 AM CEST 10:05 PM CEST
Moon 10:39 PM CEST (4/17) 7:15 AM CEST (4/17)
Length of Visible Light 15h 02m
Length of Day
13h 53m
Waning Gibbous, 95% of the Moon is Illuminated
Apr 17
Waning Gibbous
Apr 22
Last Quarter
Apr 29
New
May 7
First Quarter
May 14
Full

Hourly Weather History & Observations

Time (CEST) Temp. Windchill Dew Point Humidity Pressure Visibility Wind Dir Wind Speed Gust Speed Precip Events Conditions
12:00 AM 35 °F - 24 °F 52% 30.44 in 44 mi North 4.5 mph - -  
12:00 AM 35.6 °F 31.7 °F 23.0 °F 60% 30.36 in - North 4.6 mph - N/A   Clear
12:30 AM 35.6 °F 31.7 °F 24.8 °F 65% 30.36 in - NNW 4.6 mph - N/A   Clear
1:00 AM 35 °F - 24 °F 53% 30.44 in 37 mi NW 2.2 mph - -  
1:00 AM 33.8 °F - 23.0 °F 65% 30.36 in - Variable 1.2 mph - N/A   Clear
1:30 AM 33.8 °F 30.8 °F 24.8 °F 70% 30.36 in - WSW 3.5 mph - N/A   Clear
2:00 AM 31 °F - 23 °F 62% 30.45 in 37 mi West 4.5 mph - -  
2:00 AM 30.2 °F 25.4 °F 23.0 °F 75% 30.36 in - WSW 4.6 mph - N/A   Clear
2:30 AM 32.0 °F 27.5 °F 24.8 °F 75% 30.36 in - WSW 4.6 mph - N/A   Clear
3:00 AM 33 °F - 24 °F 57% 30.43 in 37 mi West 2.2 mph - -  
3:00 AM 33.8 °F - 23.0 °F 65% 30.36 in - WSW 2.3 mph - N/A   Clear
3:30 AM 30.2 °F - 23.0 °F 75% 30.36 in - Variable 2.3 mph - N/A   Clear
4:00 AM 30 °F - 23 °F 64% 30.43 in 37 mi West 4.5 mph - -  
4:00 AM 30.2 °F - 23.0 °F 75% 30.33 in - Variable 2.3 mph - N/A   Clear
4:30 AM 32.0 °F - 24.8 °F 75% 30.33 in - Variable 1.2 mph - N/A   Clear
5:00 AM 28 °F - 22 °F 70% 30.42 in 31 mi West 4.5 mph - -  
5:00 AM 28.4 °F 24.6 °F 23.0 °F 80% 30.33 in - SW 3.5 mph - N/A   Clear
5:30 AM 26.6 °F 21.2 °F 21.2 °F 80% 30.33 in - WSW 4.6 mph - N/A   Clear
6:00 AM 27 °F - 23 °F 77% 30.41 in 31 mi West 4.5 mph - -  
6:00 AM 26.6 °F 21.2 °F 23.0 °F 86% 30.33 in - SW 4.6 mph - N/A   Clear
6:30 AM 26.6 °F 22.6 °F 23.0 °F 86% 30.33 in - SW 3.5 mph - N/A   Clear
7:00 AM 28 °F - 24 °F 79% 30.41 in 37 mi WSW 4.5 mph - -  
7:00 AM 28.4 °F 24.6 °F 24.8 °F 86% 30.33 in - SW 3.5 mph - N/A   Clear
7:30 AM 32.0 °F 28.7 °F 26.6 °F 80% 30.33 in - WSW 3.5 mph - N/A   Clear
8:00 AM 37 °F - 30 °F 67% 30.38 in 47 mi South 2.2 mph - -   Scattered Clouds
8:00 AM 35.6 °F - 28.4 °F 75% 30.33 in - Calm Calm - N/A   Clear
8:30 AM 39.2 °F - 28.4 °F 65% 30.33 in - Variable 2.3 mph - N/A   Clear
9:00 AM 41 °F - 29 °F 51% 30.38 in 47 mi West 4.5 mph - -  
9:00 AM 41.0 °F - 28.4 °F 61% 30.33 in - Variable 2.3 mph - N/A   Clear
9:30 AM 44.6 °F - 28.4 °F 53% 30.33 in 6.2 mi Variable 2.3 mph - N/A   Partly Cloudy
10:00 AM 45 °F - 26 °F 34% 30.35 in 44 mi SE 4.5 mph - -   Scattered Clouds
10:00 AM 44.6 °F - 26.6 °F 49% 30.30 in 6.2 mi Variable 2.3 mph - N/A   Partly Cloudy
10:30 AM 46.4 °F - 26.6 °F 46% 30.30 in 6.2 mi Variable 2.3 mph - N/A   Partly Cloudy
11:00 AM 46 °F - 24 °F 29% 30.33 in 47 mi North 4.5 mph - -   Scattered Clouds
11:00 AM 46.4 °F - 23.0 °F 40% 30.30 in 6.2 mi Variable 2.3 mph - N/A   Partly Cloudy
11:30 AM 46.4 °F 44.3 °F 23.0 °F 40% 30.27 in 6.2 mi ESE 4.6 mph - N/A   Partly Cloudy
12:00 PM 47 °F - 24 °F 27% 30.31 in 47 mi SE 4.5 mph - -   Scattered Clouds
12:00 PM 48.2 °F - 23.0 °F 37% 30.27 in - ENE 6.9 mph - N/A   Clear
12:30 PM 48.2 °F - 24.8 °F 40% 30.24 in - ENE 4.6 mph - N/A   Clear
1:00 PM 49 °F - 26 °F 27% 30.27 in 44 mi NNW 4.5 mph - -   Scattered Clouds
1:00 PM 48.2 °F - 24.8 °F 40% 30.24 in - NNE 4.6 mph - N/A   Clear
1:30 PM 48.2 °F - 24.8 °F 40% 30.21 in - Variable 2.3 mph - N/A   Clear
2:00 PM 51 °F - 25 °F 24% 30.23 in 47 mi NNW 4.5 mph - -   Clear
2:00 PM 50.0 °F - 26.6 °F 40% 30.21 in - SSE 3.5 mph - N/A   Clear
2:30 PM 51.8 °F - 26.6 °F 38% 30.18 in - Variable 3.5 mph - N/A   Clear
3:00 PM 51 °F - 25 °F 23% 30.19 in 47 mi NNW 4.5 mph - -   Clear
3:00 PM 51.8 °F - 24.8 °F 35% 30.15 in - Variable 3.5 mph - N/A   Clear
3:30 PM 51.8 °F - 24.8 °F 35% 30.15 in - Variable 2.3 mph - N/A   Clear
4:00 PM 52 °F - 22 °F 19% 30.16 in 44 mi 2.2 mph - -   Clear
4:00 PM 51.8 °F - 23.0 °F 33% 30.12 in - Variable 2.3 mph - N/A   Clear
4:30 PM 53.6 °F - 24.8 °F 33% 30.12 in - Variable 3.5 mph - N/A   Clear
5:00 PM 53 °F - 21 °F 17% 30.12 in 44 mi South 6.7 mph - -   Clear
5:00 PM 51.8 °F - 21.2 °F 30% 30.09 in - South 4.6 mph - N/A   Clear
5:30 PM 53.6 °F - 21.2 °F 28% 30.09 in - South 4.6 mph - N/A   Clear
6:00 PM 53 °F - 22 °F 18% 30.09 in 44 mi SSE 4.5 mph - -   Clear
6:00 PM 53.6 °F - 23.0 °F 30% 30.06 in - South 4.6 mph - N/A   Clear
6:30 PM 51.8 °F - 21.2 °F 30% 30.06 in - SE 6.9 mph - N/A   Clear
7:00 PM 51 °F - 24 °F 23% 30.07 in 44 mi SSE 6.7 mph - -   Clear
7:00 PM 50.0 °F - 24.8 °F 37% 30.04 in - SSE 6.9 mph - N/A   Clear
7:30 PM 48.2 °F - 24.8 °F 40% 30.04 in - SSE 5.8 mph - N/A   Clear
8:00 PM 47 °F - 25 °F 29% 30.06 in 44 mi SE 6.7 mph - -   Scattered Clouds
8:00 PM 48.2 °F - 24.8 °F 40% 30.04 in - SE 6.9 mph - N/A   Clear
8:30 PM 44.6 °F 42.2 °F 26.6 °F 49% 30.04 in - SE 4.6 mph - N/A   Clear
9:00 PM 46 °F - 26 °F 32% 30.05 in 37 mi SSE 6.7 mph - -   Scattered Clouds
9:00 PM 46.4 °F 43.5 °F 24.8 °F 43% 30.01 in - SSE 5.8 mph - N/A   Clear
9:30 PM 42.8 °F 40.1 °F 26.6 °F 53% 30.01 in - South 4.6 mph - N/A   Clear
10:00 PM 44 °F - 25 °F 34% 30.04 in 31 mi South 4.5 mph - -   Scattered Clouds
10:00 PM 42.8 °F 39.3 °F 24.8 °F 49% 30.01 in - SSE 5.8 mph - N/A   Clear
10:30 PM 42.8 °F 39.3 °F 24.8 °F 49% 29.98 in - South 5.8 mph - N/A   Clear
11:00 PM 43 °F - 25 °F 37% 30.03 in 25 mi South 6.7 mph - -   Clear
11:00 PM 42.8 °F 38.6 °F 24.8 °F 49% 29.98 in - South 6.9 mph - N/A   Clear
11:30 PM 39.2 °F 34.2 °F 24.8 °F 56% 29.98 in - South 6.9 mph - N/A   Clear